GW6646 Weather Reports


time (UTC)temp
F
wind
direction
speed
knots
gust
knots
rain 1hr
in
rain 24hr
in
rain mn
in
humidity
%
barometer
mb
20260508115653 63 44 4.3 13.0 0.00 0.00 0.00 66
20260508115150 64 40 7.8 14.8 0.00 0.00 0.00 65
20260508114647 64 91 6.1 7.8 0.00 0.00 0.00 64
20260508114143 64 44 4.3 13.0 0.00 0.00 0.00 64
20260508113640 64 93 8.7 8.7 0.00 0.00 0.00 64
20260508113138 64 15 4.3 13.0 0.00 0.00 0.00 64
20260508112634 64 37 4.3 7.0 0.00 0.00 0.00 64
20260508112131 64 45 7.0 11.3 0.00 0.00 0.00 64
20260508111628 64 31 6.1 13.0 0.00 0.00 0.00 64
20260508111125 64 68 3.5 13.0 0.00 0.00 0.00 64
20260508110623 64 63 4.3 7.0 0.00 0.00 0.00 65
20260508110120 64 54 3.5 8.7 0.00 0.00 0.00 65
20260508105619 64 42 5.2 9.6 0.00 0.00 0.00 65
20260508105117 64 28 5.2 9.6 0.00 0.00 0.00 65
20260508104614 64 78 4.3 13.0 0.00 0.00 0.00 65
20260508104111 64 41 5.2 12.2 0.00 0.00 0.00 65
20260508103608 65 60 3.5 12.2 0.00 0.00 0.00 65
20260508103105 65 118 4.3 12.2 0.00 0.00 0.00 65
20260508102603 65 44 4.3 11.3 0.00 0.00 0.00 65
20260508102100 65 52 3.5 7.0 0.00 0.00 0.00 66
20260508101558 66 340 4.3 9.6 0.00 0.00 0.00 65
20260508101054 67 353 7.8 9.6 0.00 0.00 0.00 65
20260508100553 67 82 5.2 13.0 0.00 0.00 0.00 64
20260508100049 67 65 6.1 8.7 0.00 0.00 0.00 65
20260508095546 68 5 6.1 8.7 0.00 0.00 0.00 65
20260508095043 68 33 4.3 11.3 0.00 0.00 0.00 64
20260508094540 69 75 4.3 8.7 0.00 0.00 0.00 63
20260508094037 70 355 3.5 12.2 0.00 0.00 0.00 61
20260508093534 72 33 2.6 6.1 0.00 0.00 0.00 52
20260508093032 73 9 5.2 6.1 0.00 0.00 0.00 50
20260508092529 73 344 7.0 11.3 0.00 0.00 0.00 48
20260508092028 73 351 8.7 15.6 0.00 0.00 0.00 48
20260508091524 74 359 8.7 11.3 0.00 0.00 0.00 47
20260508091021 74 1 8.7 14.8 0.00 0.00 0.00 47
20260508090520 74 3 9.6 13.0 0.00 0.00 0.00 46
20260508090016 75 5 10.4 13.9 0.00 0.00 0.00 46
20260508085512 75 2 12.2 18.2 0.00 0.00 0.00 45
20260508085009 76 342 11.3 13.9 0.00 0.00 0.00 45
20260508084506 76 1 13.9 20.0 0.00 0.00 0.00 44
20260508084004 76 20 12.2 20.9 0.00 0.00 0.00 44
20260508083500 76 7 13.0 20.0 0.00 0.00 0.00 44
20260508082956 76 356 13.0 19.1 0.00 0.00 0.00 43
20260508082453 76 3 10.4 14.8 0.00 0.00 0.00 43
20260508081951 76 340 9.6 18.2 0.00 0.00 0.00 41
20260508081448 76 327 9.6 14.8 0.00 0.00 0.00 43
20260508080943 76 48 6.1 8.7 0.00 0.00 0.00 44
20260508080442 76 25 9.6 11.3 0.00 0.00 0.00 43
20260508075938 75 344 9.6 12.2 0.00 0.00 0.00 43
20260508075436 76 13 7.8 8.7 0.00 0.00 0.00 44
20260508074933 76 353 9.6 13.0 0.00 0.00 0.00 43
20260508074430 76 329 11.3 16.5 0.00 0.00 0.00 43
20260508073927 76 1 7.0 12.2 0.00 0.00 0.00 45
20260508073425 76 6 9.6 13.0 0.00 0.00 0.00 45
20260508072922 76 10 7.8 9.6 0.00 0.00 0.00 47
20260508072418 76 357 7.8 9.6 0.00 0.00 0.00 47
20260508071915 76 350 6.1 11.3 0.00 0.00 0.00 47
20260508071413 76 350 3.5 6.1 0.00 0.00 0.00 52
20260508070911 76 306 0.9 6.1 0.00 0.00 0.00 54
20260508070408 76 339 5.2 12.2 0.00 0.00 0.00 53
20260508065906 76 3 3.5 6.1 0.00 0.00 0.00 58
20260508065404 76 106 0.9 1.7 0.00 0.00 0.00 59
20260508064902 75 15 1.7 5.2 0.00 0.00 0.00 58
20260508064359 75 324 5.2 7.8 0.00 0.00 0.00 57
20260508063857 75 63 1.7 2.6 0.00 0.00 0.00 64
20260508063354 75 118 0.0 0.0 0.00 0.00 0.00 68
20260508062851 75 106 0.0 0.0 0.00 0.00 0.00 69
20260508062349 75 100 0.9 1.7 0.00 0.00 0.00 68
20260508061846 75 113 0.0 1.7 0.00 0.00 0.00 68
20260508061343 75 105 0.9 1.7 0.00 0.00 0.00 68
20260508060839 74 131 0.0 0.9 0.00 0.00 0.00 70
20260508060337 75 51 1.7 6.1 0.00 0.00 0.00 69
20260508055832 75 89 0.9 0.9 0.00 0.00 0.00 69
20260508055330 75 150 0.9 1.7 0.00 0.00 0.00 69
20260508054826 75 110 0.9 2.6 0.00 0.00 0.00 68
20260508054324 74 105 0.0 0.9 0.00 0.00 0.00 70
20260508053820 74 104 0.0 0.9 0.00 0.00 0.00 72
20260508053318 74 114 0.0 0.0 0.00 0.00 0.00 72
20260508052815 74 120 0.0 1.7 0.00 0.00 0.00 72
20260508052312 74 137 0.9 1.7 0.00 0.00 0.00 71
20260508051808 74 136 1.7 1.7 0.00 0.00 0.00 71
20260508051303 73 136 0.0 0.9 0.00 0.00 0.00 71
20260508050800 73 136 1.7 2.6 0.00 0.00 0.00 72
20260508050258 73 159 0.9 1.7 0.00 0.00 0.00 72
20260508045753 73 123 0.0 0.9 0.00 0.00 0.00 73
20260508045251 73 126 0.0 1.7 0.00 0.00 0.00 72
20260508044749 73 113 0.0 2.6 0.00 0.00 0.00 72
20260508044245 73 142 1.7 1.7 0.00 0.00 0.00 72
20260508043741 73 124 1.7 3.5 0.00 0.00 0.00 73
20260508043239 73 138 3.5 3.5 0.00 0.00 0.00 72
20260508042735 73 161 2.6 3.5 0.00 0.00 0.00 73
20260508042233 73 144 1.7 2.6 0.00 0.00 0.00 72
20260508041729 74 135 2.6 5.2 0.00 0.00 0.00 71
20260508041226 74 153 1.7 2.6 0.00 0.00 0.00 72
20260508040722 74 133 1.7 3.5 0.00 0.00 0.00 72
20260508040220 74 127 1.7 3.5 0.00 0.00 0.00 72
20260508035717 74 179 3.5 3.5 0.00 0.00 0.00 72
20260508035214 75 127 2.6 3.5 0.00 0.00 0.00 71
20260508034711 75 106 1.7 1.7 0.00 0.00 0.00 71
20260508034208 74 123 0.0 1.7 0.00 0.00 0.00 72
20260508033705 74 170 3.5 5.2 0.00 0.00 0.00 72
20260508033204 74 183 1.7 3.5 0.00 0.00 0.00 73
20260508032700 74 107 1.7 5.2 0.00 0.00 0.00 73
20260508032157 74 102 0.9 2.6 0.00 0.00 0.00 74
20260508031654 75 133 2.6 3.5 0.00 0.00 0.00 72
20260508031150 75 143 1.7 3.5 0.00 0.00 0.00 73
20260508030647 74 152 1.7 2.6 0.00 0.00 0.00 75
20260508030145 74 113 0.9 5.2 0.00 0.00 0.00 74
20260508025641 74 84 1.7 5.2 0.00 0.00 0.00 73
20260508025138 74 46 0.9 2.6 0.00 0.00 0.00 74
20260508024633 74 163 1.7 3.5 0.00 0.00 0.00 74
20260508024131 74 73 2.6 2.6 0.00 0.00 0.00 75
20260508023627 73 181 3.5 6.1 0.00 0.00 0.00 75
20260508023125 73 142 3.5 5.2 0.00 0.00 0.00 75
20260508022620 73 113 5.2 6.1 0.00 0.00 0.00 75
20260508022118 73 153 5.2 7.8 0.00 0.00 0.00 75
20260508021614 73 112 3.5 7.0 0.00 0.00 0.00 74
20260508021110 74 87 3.5 3.5 0.00 0.00 0.00 73
20260508020608 75 109 0.9 1.7 0.00 0.00 0.00 71
20260508020105 74 107 0.0 1.7 0.00 0.00 0.00 73
20260508015602 74 131 1.7 3.5 0.00 0.00 0.00 74
20260508015059 73 145 0.9 1.7 0.00 0.00 0.00 74
20260508014555 73 146 0.9 1.7 0.00 0.00 0.00 74
20260508014052 74 153 0.9 2.6 0.00 0.00 0.00 73
20260508013548 74 115 0.9 0.9 0.00 0.00 0.00 74
20260508013045 74 113 0.0 0.9 0.00 0.00 0.00 74
20260508012542 73 72 0.9 1.7 0.00 0.00 0.00 75
20260508012040 73 170 1.7 1.7 0.00 0.00 0.00 75
20260508011538 73 125 0.0 1.7 0.00 0.00 0.00 76
20260508011035 72 134 1.7 2.6 0.00 0.00 0.00 75
20260508010531 73 158 0.9 3.5 0.00 0.00 0.00 75
20260508010029 72 207 1.7 2.6 0.00 0.00 0.00 76
20260508005525 72 136 0.9 1.7 0.00 0.00 0.00 77
20260508005022 71 136 0.9 1.7 0.00 0.00 0.00 79
20260508004518 72 215 2.6 2.6 0.00 0.00 0.00 77
20260508004015 71 129 0.9 1.7 0.00 0.00 0.00 79
20260508003512 71 111 0.9 1.7 0.00 0.00 0.00 79
20260508003009 71 95 1.7 1.7 0.00 0.00 0.00 79
20260508002505 71 129 0.9 0.9 0.00 0.00 0.00 79
20260508002002 70 136 0.0 0.9 0.00 0.00 0.00 81
20260508001458 70 141 1.7 2.6 0.00 0.00 0.00 81
20260508000955 69 73 0.9 1.7 0.00 0.00 0.00 82
20260508000450 69 125 0.0 1.7 0.00 0.00 0.00 82
20260507235948 69 70 0.9 1.7 0.00 0.00 0.00 83
20260507235444 68 123 0.0 0.9 0.00 0.00 0.00 85
20260507234942 68 47 2.6 2.6 0.00 0.00 0.00 85
20260507234438 68 96 0.9 2.6 0.00 0.00 0.00 84
20260507233935 69 31 1.7 1.7 0.00 0.00 0.00 84
20260507233432 68 84 0.9 2.6 0.00 0.00 0.00 84
20260507232930 68 123 0.0 0.9 0.00 0.00 0.00 86
20260507232426 67 9 2.6 3.5 0.00 0.00 0.00 87
20260507231924 67 83 0.9 2.6 0.00 0.00 0.00 86
20260507231420 67 112 0.0 0.9 0.00 0.00 0.00 86
20260507230917 67 105 0.0 0.9 0.00 0.00 0.00 86
20260507230415 67 77 1.7 2.6 0.00 0.00 0.00 86
20260507225914 68 123 0.0 0.9 0.00 0.00 0.00 85
20260507225411 68 106 0.0 0.9 0.00 0.00 0.00 85
20260507224907 68 124 0.0 0.9 0.00 0.00 0.00 86
20260507224403 67 116 0.0 0.0 0.00 0.00 0.00 87
20260507223900 67 86 0.9 1.7 0.00 0.00 0.00 87
20260507223356 67 108 0.0 0.9 0.00 0.00 0.00 88
20260507222853 67 112 0.0 0.9 0.00 0.00 0.00 88
20260507222349 67 115 0.0 0.9 0.00 0.00 0.00 88
20260507221846 67 252 0.0 0.9 0.00 0.00 0.00 88
20260507221343 67 105 0.9 2.6 0.00 0.00 0.00 87
20260507220839 67 49 0.9 0.9 0.00 0.00 0.00 87
20260507220337 67 105 0.0 0.9 0.00 0.00 0.00 87
20260507215833 67 348 1.7 2.6 0.00 0.00 0.00 87
20260507215330 67 126 0.0 0.0 0.00 0.00 0.00 87
20260507214827 67 138 0.0 0.9 0.00 0.00 0.00 88
20260507214326 67 144 0.9 0.9 0.00 0.00 0.00 88
20260507213826 66 107 0.0 0.9 0.00 0.00 0.00 88
20260507213323 66 33 2.6 3.5 0.00 0.00 0.00 89
20260507212820 66 138 0.9 1.7 0.00 0.00 0.00 89
20260507212316 66 103 0.0 0.9 0.00 0.00 0.00 90
20260507211812 65 112 0.0 0.0 0.00 0.00 0.00 90
20260507211309 65 77 0.9 2.6 0.00 0.00 0.00 90
20260507210806 65 74 0.9 1.7 0.00 0.00 0.00 91
20260507210303 65 109 0.0 0.0 0.00 0.00 0.00 91
20260507205759 65 108 0.0 0.9 0.00 0.00 0.00 91
20260507205256 65 110 0.0 0.0 0.00 0.00 0.00 91
20260507204752 64 86 0.9 0.9 0.00 0.00 0.00 91
20260507204250 64 98 0.0 0.9 0.00 0.00 0.00 91
20260507203748 64 90 0.9 1.7 0.00 0.00 0.00 91
20260507203245 64 82 0.9 1.7 0.00 0.00 0.00 91
20260507202741 64 51 1.7 1.7 0.00 0.00 0.00 91
20260507202237 64 242 3.5 5.2 0.00 0.00 0.00 91
20260507201732 64 153 2.6 3.5 0.00 0.00 0.00 91
20260507201229 64 251 2.6 3.5 0.00 0.00 0.00 91
20260507200726 64 189 2.6 2.6 0.00 0.00 0.00 91
20260507200222 64 166 1.7 1.7 0.00 0.00 0.00 91
20260507195718 64 124 0.0 0.0 0.00 0.00 0.00 91
20260507195215 64 139 0.0 0.9 0.00 0.00 0.00 91
20260507194712 64 103 0.0 1.7 0.00 0.00 0.00 91
20260507194209 64 102 0.0 1.7 0.00 0.00 0.00 91
20260507193705 65 94 0.0 2.6 0.00 0.00 0.00 91
20260507193202 65 53 1.7 5.2 0.00 0.00 0.00 91
20260507192658 65 358 5.2 6.1 0.00 0.00 0.00 90
20260507192155 65 330 4.3 5.2 0.00 0.00 0.00 90
20260507191651 65 359 3.5 5.2 0.00 0.00 0.00 90
20260507191148 65 33 3.5 5.2 0.00 0.00 0.00 90
20260507190645 65 93 0.9 2.6 0.00 0.00 0.00 91
20260507190144 65 111 0.9 0.9 0.00 0.00 0.00 91
20260507185642 65 99 0.9 0.9 0.00 0.00 0.00 91
20260507185138 65 49 0.9 1.7 0.00 0.00 0.00 91
20260507184636 65 106 0.0 0.9 0.00 0.00 0.00 91
20260507184134 64 114 0.0 0.0 0.00 0.00 0.00 91
20260507183630 64 71 0.0 0.9 0.00 0.00 0.00 91
20260507183127 64 54 0.9 1.7 0.00 0.00 0.00 91
20260507182623 64 62 1.7 1.7 0.00 0.00 0.00 91
20260507182119 64 157 0.9 1.7 0.00 0.00 0.00 91
20260507181616 64 107 0.0 0.0 0.00 0.00 0.00 90
20260507181112 64 109 0.0 0.0 0.00 0.00 0.00 90
20260507180609 64 110 0.0 0.0 0.00 0.00 0.00 90
20260507180106 64 111 0.0 0.0 0.00 0.00 0.00 90
20260507175602 64 109 0.0 0.0 0.00 0.00 0.00 90
20260507175059 64 232 0.0 0.9 0.00 0.00 0.00 90
20260507174556 64 232 0.0 0.0 0.00 0.00 0.00 90
20260507174054 65 233 0.9 1.7 0.00 0.00 0.00 89
20260507173551 65 126 0.0 0.0 0.00 0.00 0.00 89
20260507173048 65 58 0.9 1.7 0.00 0.00 0.00 89
20260507172544 65 116 0.9 0.9 0.00 0.00 0.00 88
20260507172041 65 122 0.0 0.0 0.00 0.00 0.00 88
20260507171536 65 113 0.0 0.9 0.00 0.00 0.00 88
20260507171034 65 107 0.0 0.9 0.00 0.00 0.00 88
20260507170530 65 110 0.0 0.9 0.00 0.00 0.00 88
20260507170027 65 116 0.0 0.0 0.00 0.00 0.00 88
20260507165523 65 97 0.0 0.9 0.00 0.00 0.00 88
20260507165020 65 115 0.0 0.9 0.00 0.00 0.00 88
20260507164516 65 90 0.9 1.7 0.00 0.00 0.00 88
20260507164013 65 39 1.7 2.6 0.00 0.00 0.00 88
20260507163510 65 114 0.0 1.7 0.00 0.00 0.00 88
20260507163008 65 100 0.0 0.9 0.00 0.00 0.00 88
20260507162503 65 74 0.9 0.9 0.00 0.00 0.00 89
20260507162000 65 73 0.9 2.6 0.00 0.00 0.00 89
20260507161456 65 29 1.7 2.6 0.00 0.00 0.00 89
20260507160953 65 61 0.0 0.9 0.00 0.00 0.00 89
20260507160449 65 59 0.9 1.7 0.00 0.00 0.00 89
20260507155945 65 44 1.7 1.7 0.00 0.00 0.00 88
20260507155441 65 118 0.0 0.0 0.00 0.00 0.00 87
20260507154938 65 102 0.0 0.0 0.00 0.00 0.00 87
20260507154435 65 68 0.9 1.7 0.00 0.00 0.00 87
20260507153932 65 90 1.7 1.7 0.00 0.00 0.00 87
20260507153429 65 99 0.9 1.7 0.00 0.00 0.00 87
20260507152925 65 87 0.9 0.9 0.00 0.00 0.00 87
20260507152421 65 121 0.0 0.9 0.00 0.00 0.00 88
20260507151917 65 108 0.0 0.0 0.00 0.00 0.00 87
20260507151414 65 98 0.9 0.9 0.00 0.00 0.00 87
20260507150911 65 98 0.9 0.9 0.00 0.00 0.00 87
20260507150408 65 122 0.0 0.9 0.00 0.00 0.00 86
20260507145904 66 108 0.0 0.9 0.00 0.00 0.00 86
20260507145400 66 117 0.0 1.7 0.00 0.00 0.00 86
20260507144857 66 51 1.7 1.7 0.00 0.00 0.00 86
20260507144354 66 102 0.0 0.9 0.00 0.00 0.00 86
20260507143851 66 111 0.0 0.9 0.00 0.00 0.00 85
20260507143348 66 95 0.0 0.9 0.00 0.00 0.00 85
20260507142845 66 114 0.0 0.9 0.00 0.00 0.00 84
20260507142341 67 115 0.9 0.9 0.00 0.00 0.00 83
20260507141838 67 24 0.9 2.6 0.00 0.00 0.00 83
20260507141334 67 91 0.9 1.7 0.00 0.00 0.00 82
20260507140831 67 112 0.9 0.9 0.00 0.00 0.00 81
20260507140328 67 127 0.0 0.9 0.00 0.00 0.00 81
20260507135826 67 2 0.9 1.7 0.00 0.00 0.00 80
20260507135322 68 133 0.9 2.6 0.00 0.00 0.00 80
20260507134820 67 156 0.9 2.6 0.00 0.00 0.00 80
20260507134315 68 305 1.7 2.6 0.00 0.00 0.00 80
20260507133811 68 120 0.9 3.5 0.00 0.00 0.00 80
20260507133307 68 206 1.7 3.5 0.00 0.00 0.00 80
20260507132806 68 298 1.7 1.7 0.00 0.00 0.00 79
20260507132306 68 133 0.9 1.7 0.00 0.00 0.00 79
20260507131759 68 242 2.6 6.1 0.00 0.00 0.00 79
20260507131256 68 178 1.7 6.1 0.00 0.00 0.00 79
20260507130752 68 163 1.7 2.6 0.00 0.00 0.00 80
20260507130250 68 348 2.6 3.5 0.00 0.00 0.00 80
20260507125749 68 120 0.0 2.6 0.00 0.00 0.00 80
20260507125246 68 187 1.7 1.7 0.00 0.00 0.00 80
20260507124743 69 123 0.0 0.0 0.00 0.00 0.00 80
20260507124239 69 141 0.9 1.7 0.00 0.00 0.00 80
20260507123738 68 205 0.0 0.9 0.00 0.00 0.00 80
20260507123235 68 161 0.9 0.9 0.00 0.00 0.00 81
20260507122730 68 120 0.0 0.9 0.00 0.00 0.00 80
20260507122226 68 100 0.9 0.9 0.00 0.00 0.00 80
20260507121722 68 113 0.0 0.9 0.00 0.00 0.00 80
20260507121218 68 112 0.0 0.9 0.00 0.00 0.00 79
20260507120715 68 115 0.0 1.7 0.00 0.00 0.00 79
20260507120212 68 42 1.7 2.6 0.00 0.00 0.00 79